Home > Weather > Bloomington > Past weeks

Flag for USA Past Weather in Bloomington, Illinois, USA — Yesterday and Last 2 Weeks

Now
73 °F

Sunny.


Feels Like: 76 °F
Forecast: 65 / 83 °F
Wind: 9 mph from West

Location: Bloomington / Normal

Current Time: May 31, 2016 at 3:00:32 PM

Latest Report: May 31, 2016 at 1:56 PM


Visibility: 10 mi

Pressure: 29.94 "Hg

Humidity: 64%

Dew Point: 60 °F

Location of BloomingtonLocation

Past Weather in Bloomington — Graph

°F

Bloomington Temperature Yesterday

Maximum temperature yesterday: 87 °F (at 2:56 PM)
Minimum temperature yesterday: 63 °F (at 4:56 AM)
Average temperature yesterday: 76 °F

High & Low Weather Summary for the Past Weeks

 TemperatureHumidityPressure
High87 °F (May 30, 2:56 PM)100% (May 16, 11:56 PM)30.26 "Hg (May 16, 11:56 PM)
Low41 °F (May 18, 2:56 AM)23% (May 22, 3:56 PM)29.81 "Hg (May 27, 5:56 PM)
Average68 °F66%30.03 "Hg
* Reported May 16 1:56 PM — May 31 1:56 PM, Bloomington, Weather by CustomWeather, © 2016

Note: Actual official high and low records may vary slightly from our data, if they occured in-between our weather recording intervals... More about our weather records

Advertising

Bloomington Weather History for the Previous 24 Hours

Scroll right to see more
 ConditionsComfort  
Time TempWeatherWind HumidityBarometerVisibility
1:56 PM
Tue, May 31
73 °FSunny.9 mph64%29.94 "Hg10 mi
12:56 PM75 °FPassing clouds.20 mph62%29.97 "Hg10 mi
11:56 AM83 °FPassing clouds.13 mph51%29.94 "Hg10 mi
10:56 AM81 °FPassing clouds.10 mph58%29.95 "Hg10 mi
9:56 AM78 °FSunny.7 mph64%29.95 "Hg10 mi
8:56 AM74 °FSunny.6 mph74%29.96 "Hg10 mi
7:56 AM72 °FSunny.6 mph76%29.96 "Hg10 mi
6:56 AM68 °FSunny.3 mph87%29.96 "Hg10 mi
5:56 AM68 °FClear.3 mph84%29.96 "Hg10 mi
4:56 AM70 °FPassing clouds.No wind76%29.94 "Hg10 mi
3:56 AM72 °FPassing clouds.3 mph66%29.93 "Hg10 mi
2:56 AM73 °FPassing clouds.6 mph66%29.94 "Hg10 mi
1:56 AM73 °FClear.5 mph64%29.94 "Hg10 mi
12:56 AM72 °FClear.7 mph68%29.95 "Hg10 mi
11:56 PM
Mon, May 30
72 °FClear.8 mph71%29.96 "Hg10 mi
10:56 PM72 °FClear.8 mph73%29.97 "Hg10 mi
9:56 PM72 °FClear.9 mph73%29.96 "Hg10 mi
8:56 PM75 °FSunny.8 mph69%29.94 "Hg10 mi
7:56 PM77 °FSunny.8 mph64%29.96 "Hg10 mi
6:56 PM83 °FSunny.6 mph53%29.95 "Hg10 mi
5:56 PM85 °FPassing clouds.5 mph46%29.95 "Hg10 mi
4:56 PM87 °FPassing clouds.8 mph40%29.96 "Hg10 mi
3:56 PM87 °FSunny.9 mph45%29.96 "Hg10 mi
Weather by CustomWeather, © 2016

See weather overviewHow to use our weather pages